Location: Squirrel Cove
(50.1074°N, 124.9139°W)
Time: 13:04:46
(UTC-07:00)

PCSat - Pass Details

Date: 25 May 2022
Orbit: 784 x 795 km, 67.1° (Epoch: 26 June)

Event Time Altitude Azimuth Distance (km) Brightness Sun altitude
Rises 02:37:39 0° 324° (NW) 3,307 13.3 -16.7°
Reaches altitude 10° 02:40:05 10° 326° (NW) 2,374 12.5 -16.5°
Maximum altitude 02:45:33 76° 52° (NE) 824 9.7 -16.2°
Drops below altitude 10° 02:50:58 10° 139° (SE) 2,358 11.8 -15.9°
Sets 02:53:23 0° 141° (SE) 3,282 12.5 -15.8°
